Champaign, IL

1:51 PM CDT on July 21, 2019 (GMT -0500)
Univ Of Illinois-Willard

Weather History for KCMI - May, 2019

Change the Weather History Date:

Saturday, May 18, 2019

  Actual Average Record
Temperature  
Mean Temperature 75 °F 64 °F  
Max Temperature 88 °F 76 °F 91 °F (1998)
Min Temperature 61 °F 52 °F 33 °F (2002)
Degree Days  
Heating Degree Days 0 4  
Month to date heating degree days 115 106  
Since 1 July heating degree days 5878 5770  
Cooling Degree Days 10 3  
Month to date cooling degree days 28 32  
Year to date cooling degree days 31 43  
Growing Degree Days 24 (Base 50)    
Moisture  
Dew Point 59 °F    
Average Humidity 66    
Maximum Humidity 97    
Minimum Humidity 34    
Precipitation  
Precipitation 0.00 in 0.15 in 1.76 in (2004)
Month to date precipitation 2.12 2.73  
Year to date precipitation 14.26 13.34  
Sea Level Pressure  
Sea Level Pressure 29.80 in    
Wind  
Wind Speed 17 mph (South)    
Max Wind Speed 31 mph    
Max Gust Speed 42 mph    
Visibility 10 miles    
Events      
T = Trace of Precipitation, MM = Missing Value Source: NWS Daily Summary

Daily Weather History Graph

Daily Weather History Graph

Search for Another Location

Airport or City:

Astronomy

May. 18, 2019 Rise Set
Actual Time 5:35 AM CDT 8:04 PM CDT
Civil Twilight 5:04 AM CDT 8:35 PM CDT
Nautical Twilight 4:26 AM CDT 9:13 PM CDT
Astronomical Twilight 3:43 AM CDT 9:56 PM CDT
Moon 7:59 PM CDT (5/18) 5:41 AM CDT (5/18)
Length of Visible Light 15h 30m
Length of Day
14h 29m
Full, 100% of the Moon is Illuminated
May 18
Full
May 18
Full
May 26
Last Quarter
Jun 3
New
Jun 10
First Quarter

Hourly Weather History & Observations

Time (CDT) Temp. Heat Index Dew Point Humidity Pressure Visibility Wind Dir Wind Speed Gust Speed Precip Events Conditions
12:53 AM 64.0 °F - 60.1 °F 87% 29.86 in 8.0 mi ENE 5.8 mph - N/A   Mostly Cloudy
1:53 AM 61.0 °F - 59.0 °F 93% 29.85 in 7.0 mi ESE 5.8 mph - N/A   Clear
2:53 AM 64.0 °F - 60.1 °F 87% 29.84 in 9.0 mi South 8.1 mph - N/A   Clear
3:53 AM 63.0 °F - 60.1 °F 90% 29.84 in 9.0 mi South 8.1 mph - N/A   Clear
4:53 AM 64.9 °F - 59.0 °F 81% 29.84 in 10.0 mi South 9.2 mph - N/A   Clear
5:53 AM 64.0 °F - 59.0 °F 84% 29.84 in 8.0 mi South 9.2 mph - N/A   Clear
6:53 AM 66.9 °F - 61.0 °F 81% 29.86 in 9.0 mi South 11.5 mph - N/A   Clear
7:53 AM 71.1 °F - 62.1 °F 73% 29.86 in 10.0 mi South 10.4 mph - N/A   Clear
8:53 AM 77.0 °F - 61.0 °F 58% 29.84 in 10.0 mi SSW 18.4 mph - N/A   Clear
9:53 AM 80.1 °F 80.9 °F 60.1 °F 50% 29.82 in 10.0 mi SSW 24.2 mph 32.2 mph N/A   Clear
10:53 AM 84.0 °F 84.0 °F 60.1 °F 44% 29.82 in 10.0 mi SSW 25.3 mph 33.4 mph N/A   Clear
11:53 AM 84.0 °F 84.4 °F 61.0 °F 46% 29.81 in 10.0 mi South 25.3 mph 33.4 mph N/A   Clear
12:53 PM 86.0 °F 86.1 °F 61.0 °F 43% 29.80 in 10.0 mi South 26.5 mph 35.7 mph N/A   Partly Cloudy
1:53 PM 87.1 °F 86.5 °F 59.0 °F 39% 29.78 in 10.0 mi South 21.9 mph 36.8 mph N/A   Partly Cloudy
2:53 PM 86.0 °F 84.7 °F 55.9 °F 36% 29.78 in 10.0 mi SSW 26.5 mph 34.5 mph N/A   Partly Cloudy
3:53 PM 87.1 °F 85.3 °F 55.0 °F 33% 29.78 in 10.0 mi South 23.0 mph 34.5 mph N/A   Scattered Clouds
4:53 PM 86.0 °F 84.7 °F 55.9 °F 36% 29.77 in 10.0 mi South 20.7 mph 31.1 mph N/A   Clear
5:53 PM 84.0 °F 82.9 °F 55.0 °F 37% 29.75 in 10.0 mi SSW 18.4 mph 28.8 mph N/A   Clear
6:53 PM 82.0 °F 81.4 °F 55.0 °F 39% 29.75 in 10.0 mi South 16.1 mph - N/A   Clear
7:53 PM 77.0 °F - 55.0 °F 47% 29.73 in 10.0 mi South 12.7 mph - N/A   Clear
8:53 PM 73.9 °F - 55.9 °F 53% 29.73 in 10.0 mi SSE 12.7 mph - N/A   Clear
9:53 PM 75.0 °F - 57.0 °F 53% 29.72 in 10.0 mi SSE 13.8 mph - N/A   Clear
10:53 PM 73.0 °F - 57.9 °F 59% 29.72 in 10.0 mi SSE 15.0 mph - N/A   Clear
11:53 PM 73.0 °F - 60.1 °F 64% 29.70 in 10.0 mi SSE 18.4 mph 27.6 mph N/A   Clear